| time (UTC) | temp F | wind direction | speed MPH | gust MPH | rain 1hr in | rain 24hr in | rain mn in | humidity % | barometer mb |
| 20260504044009 | 55 | 270 | 0.0 | 3.0 | 0.00 | 0.00 | 0.00 | 65 | 1013.5 |
| 20260504043511 | 55 | 272 | 2.0 | 3.0 | 0.00 | 0.00 | 0.00 | 65 | 1013.6 |
| 20260504043012 | 54 | 272 | 2.0 | 3.0 | 0.00 | 0.00 | 0.00 | 65 | 1013.7 |
| 20260504042509 | 54 | 282 | 3.0 | 3.0 | 0.00 | 0.00 | 0.00 | 66 | 1013.7 |
| 20260504042009 | 55 | 245 | 1.0 | 3.0 | 0.00 | 0.00 | 0.00 | 66 | 1013.8 |
| 20260504041512 | 54 | 245 | 2.0 | 2.0 | 0.00 | 0.00 | 0.00 | 66 | 1013.8 |
| 20260504041009 | 54 | 245 | 1.0 | 2.0 | 0.00 | 0.00 | 0.00 | 66 | 1013.9 |
| 20260504040514 | 54 | 244 | 1.0 | 2.0 | 0.00 | 0.00 | 0.00 | 66 | 1013.9 |
| 20260504040012 | 54 | 238 | 0.0 | 2.0 | 0.00 | 0.00 | 0.00 | 66 | 1013.9 |
| 20260504035509 | 54 | 238 | 1.0 | 2.0 | 0.00 | 0.00 | 0.00 | 66 | 1013.9 |
| 20260504035018 | 54 | 239 | 2.0 | 3.0 | 0.00 | 0.00 | 0.00 | 66 | 1013.9 |
| 20260504034512 | 55 | 235 | 2.0 | 4.0 | 0.00 | 0.00 | 0.00 | 66 | 1014.0 |
| 20260504034016 | 55 | 247 | 3.0 | 5.0 | 0.00 | 0.00 | 0.00 | 66 | 1013.8 |
| 20260504033511 | 55 | 247 | 3.0 | 5.0 | 0.00 | 0.00 | 0.00 | 65 | 1013.8 |
| 20260504033009 | 55 | 244 | 3.0 | 5.0 | 0.00 | 0.00 | 0.00 | 65 | 1013.7 |
| 20260504032515 | 56 | 263 | 2.0 | 4.0 | 0.00 | 0.00 | 0.00 | 63 | 1013.7 |
| 20260504032012 | 56 | 250 | 1.0 | 3.0 | 0.00 | 0.00 | 0.00 | 62 | 1013.6 |
| 20260504031510 | 56 | 252 | 2.0 | 3.0 | 0.00 | 0.00 | 0.00 | 62 | 1013.7 |
| 20260504031009 | 56 | 25 | 1.0 | 2.0 | 0.00 | 0.00 | 0.00 | 62 | 1013.7 |
| 20260504030514 | 56 | 25 | 0.0 | 2.0 | 0.00 | 0.00 | 0.00 | 61 | 1013.8 |
| 20260504030012 | 57 | 25 | 1.0 | 2.0 | 0.00 | 0.00 | 0.00 | 61 | 1013.9 |
| 20260504025509 | 57 | 25 | 0.0 | 0.0 | 0.00 | 0.00 | 0.00 | 60 | 1013.9 |
| 20260504025013 | 57 | 25 | 0.0 | 1.0 | 0.00 | 0.00 | 0.00 | 60 | 1013.9 |
| 20260504024512 | 57 | 25 | 1.0 | 4.0 | 0.00 | 0.00 | 0.00 | 60 | 1014.0 |
| 20260504024012 | 57 | 25 | 2.0 | 4.0 | 0.00 | 0.00 | 0.00 | 60 | 1013.9 |
| 20260504023511 | 57 | 25 | 1.0 | 4.0 | 0.00 | 0.00 | 0.00 | 60 | 1013.8 |
| 20260504023009 | 57 | 353 | 1.0 | 2.0 | 0.00 | 0.00 | 0.00 | 60 | 1013.8 |
| 20260504022513 | 57 | 354 | 1.0 | 1.0 | 0.00 | 0.00 | 0.00 | 60 | 1013.9 |
| 20260504022010 | 57 | 354 | 0.0 | 2.0 | 0.00 | 0.00 | 0.00 | 60 | 1013.9 |
| 20260504021515 | 57 | 354 | 1.0 | 2.0 | 0.00 | 0.00 | 0.00 | 60 | 1013.9 |
| 20260504021012 | 57 | 354 | 1.0 | 2.0 | 0.00 | 0.00 | 0.00 | 60 | 1013.8 |
| 20260504020511 | 57 | 354 | 1.0 | 2.0 | 0.00 | 0.00 | 0.00 | 59 | 1013.8 |
| 20260504020009 | 57 | 354 | 1.0 | 3.0 | 0.00 | 0.00 | 0.00 | 59 | 1013.8 |
| 20260504015512 | 58 | 354 | 0.0 | 2.0 | 0.00 | 0.00 | 0.00 | 59 | 1013.8 |
| 20260504015012 | 58 | 354 | 1.0 | 2.0 | 0.00 | 0.00 | 0.00 | 59 | 1013.8 |
| 20260504014509 | 58 | 12 | 2.0 | 4.0 | 0.00 | 0.00 | 0.00 | 59 | 1013.7 |
| 20260504014009 | 58 | 351 | 2.0 | 5.0 | 0.00 | 0.00 | 0.00 | 58 | 1013.7 |
| 20260504013511 | 58 | 351 | 4.0 | 6.0 | 0.00 | 0.00 | 0.00 | 58 | 1013.7 |
| 20260504013012 | 59 | 347 | 3.0 | 4.0 | 0.00 | 0.00 | 0.00 | 57 | 1013.8 |
| 20260504012515 | 59 | 325 | 2.0 | 4.0 | 0.00 | 0.00 | 0.00 | 56 | 1013.8 |
| 20260504012009 | 59 | 337 | 2.0 | 5.0 | 0.00 | 0.00 | 0.00 | 56 | 1013.9 |
| 20260504011510 | 59 | 332 | 4.0 | 5.0 | 0.00 | 0.00 | 0.00 | 55 | 1013.9 |
| 20260504011012 | 60 | 307 | 4.0 | 6.0 | 0.00 | 0.00 | 0.00 | 55 | 1013.8 |
| 20260504010511 | 60 | 306 | 4.0 | 4.0 | 0.00 | 0.00 | 0.00 | 55 | 1013.8 |
| 20260504010009 | 60 | 277 | 2.0 | 4.0 | 0.00 | 0.00 | 0.00 | 55 | 1013.9 |
| 20260504005512 | 60 | 258 | 3.0 | 4.0 | 0.00 | 0.00 | 0.00 | 55 | 1013.8 |
| 20260504005015 | 60 | 282 | 2.0 | 4.0 | 0.00 | 0.00 | 0.00 | 54 | 1013.9 |
| 20260504004509 | 61 | 255 | 3.0 | 5.0 | 0.00 | 0.00 | 0.00 | 54 | 1013.9 |
| 20260504004009 | 61 | 311 | 1.0 | 2.0 | 0.00 | 0.00 | 0.00 | 53 | 1013.8 |
| 20260504003520 | 61 | 310 | 1.0 | 3.0 | 0.00 | 0.00 | 0.00 | 52 | 1013.7 |
| 20260504003009 | 61 | 326 | 2.0 | 6.0 | 0.00 | 0.00 | 0.00 | 52 | 1013.5 |
| 20260504002515 | 62 | 337 | 4.0 | 5.0 | 0.00 | 0.00 | 0.00 | 52 | 1013.5 |
| 20260504002012 | 62 | 320 | 2.0 | 5.0 | 0.00 | 0.00 | 0.00 | 51 | 1013.6 |
| 20260504001515 | 62 | 318 | 3.0 | 4.0 | 0.00 | 0.00 | 0.00 | 51 | 1013.6 |
| 20260504001009 | 62 | 277 | 2.0 | 3.0 | 0.00 | 0.00 | 0.00 | 51 | 1013.7 |
| 20260504000514 | 62 | 282 | 1.0 | 2.0 | 0.00 | 0.00 | 0.00 | 51 | 1013.7 |
| 20260504000009 | 62 | 282 | 1.0 | 3.0 | 0.00 | 0.00 | 0.00 | 51 | 1013.7 |
| 20260503235509 | 62 | 315 | 1.0 | 3.0 | 0.00 | 0.00 | 0.00 | 51 | 1013.8 |
| 20260503235009 | 62 | 333 | 2.0 | 3.0 | 0.00 | 0.00 | 0.00 | 51 | 1013.7 |
| 20260503234509 | 62 | 341 | 1.0 | 2.0 | 0.00 | 0.00 | 0.00 | 50 | 1013.6 |
| 20260503234015 | 63 | 53 | 0.0 | 1.0 | 0.00 | 0.00 | 0.00 | 50 | 1013.6 |
| 20260503233514 | 63 | 53 | 0.0 | 5.0 | 0.00 | 0.00 | 0.00 | 50 | 1013.5 |
| 20260503233009 | 63 | 79 | 4.0 | 6.0 | 0.00 | 0.00 | 0.00 | 50 | 1013.4 |
| 20260503232509 | 63 | 43 | 0.0 | 2.0 | 0.00 | 0.00 | 0.00 | 50 | 1013.4 |
| 20260503232012 | 63 | 38 | 0.0 | 6.0 | 0.00 | 0.00 | 0.00 | 49 | 1013.4 |
| 20260503231509 | 63 | 50 | 5.0 | 6.0 | 0.00 | 0.00 | 0.00 | 49 | 1013.3 |
| 20260503231012 | 63 | 54 | 4.0 | 5.0 | 0.00 | 0.00 | 0.00 | 49 | 1013.4 |
| 20260503230511 | 63 | 114 | 0.0 | 6.0 | 0.00 | 0.00 | 0.00 | 49 | 1013.4 |
| 20260503230009 | 64 | 83 | 4.0 | 8.0 | 0.00 | 0.00 | 0.00 | 48 | 1013.3 |
| 20260503225509 | 64 | 75 | 6.0 | 8.0 | 0.00 | 0.00 | 0.00 | 48 | 1013.3 |
| 20260503225012 | 64 | 85 | 5.0 | 6.0 | 0.00 | 0.00 | 0.00 | 48 | 1013.4 |
| 20260503224512 | 64 | 67 | 5.0 | 8.0 | 0.00 | 0.00 | 0.00 | 48 | 1013.4 |
| 20260503224018 | 64 | 60 | 6.0 | 9.0 | 0.00 | 0.00 | 0.00 | 47 | 1013.3 |
| 20260503223511 | 65 | 81 | 5.0 | 9.0 | 0.00 | 0.00 | 0.00 | 47 | 1013.3 |
| 20260503223012 | 65 | 100 | 6.0 | 11.0 | 0.00 | 0.00 | 0.00 | 46 | 1013.2 |
| 20260503222512 | 65 | 75 | 8.0 | 11.0 | 0.00 | 0.00 | 0.00 | 46 | 1013.3 |
| 20260503222015 | 65 | 70 | 6.0 | 9.0 | 0.00 | 0.00 | 0.00 | 46 | 1013.4 |
| 20260503221509 | 65 | 76 | 6.0 | 10.0 | 0.00 | 0.00 | 0.00 | 46 | 1013.4 |
| 20260503221012 | 66 | 84 | 7.0 | 11.0 | 0.00 | 0.00 | 0.00 | 45 | 1013.4 |
| 20260503220511 | 66 | 80 | 9.0 | 12.0 | 0.00 | 0.00 | 0.00 | 45 | 1013.4 |
| 20260503220018 | 66 | 91 | 7.0 | 11.0 | 0.00 | 0.00 | 0.00 | 45 | 1013.4 |
| 20260503215512 | 66 | 106 | 4.0 | 10.0 | 0.00 | 0.00 | 0.00 | 45 | 1013.5 |
| 20260503215015 | 66 | 94 | 9.0 | 13.0 | 0.00 | 0.00 | 0.00 | 44 | 1013.5 |
| 20260503214509 | 66 | 71 | 7.0 | 13.0 | 0.00 | 0.00 | 0.00 | 44 | 1013.5 |
| 20260503214012 | 66 | 76 | 10.0 | 12.0 | 0.00 | 0.00 | 0.00 | 44 | 1013.5 |
| 20260503213511 | 67 | 101 | 8.0 | 11.0 | 0.00 | 0.00 | 0.00 | 44 | 1013.5 |
| 20260503213012 | 67 | 89 | 6.0 | 14.0 | 0.00 | 0.00 | 0.00 | 43 | 1013.6 |
| 20260503212515 | 67 | 97 | 5.0 | 16.0 | 0.00 | 0.00 | 0.00 | 43 | 1013.6 |
| 20260503212009 | 67 | 72 | 13.0 | 16.0 | 0.00 | 0.00 | 0.00 | 43 | 1013.6 |
| 20260503211512 | 67 | 79 | 8.0 | 14.0 | 0.00 | 0.00 | 0.00 | 43 | 1013.6 |
| 20260503211012 | 68 | 78 | 11.0 | 15.0 | 0.00 | 0.00 | 0.00 | 42 | 1013.6 |
| 20260503210514 | 68 | 72 | 12.0 | 14.0 | 0.00 | 0.00 | 0.00 | 42 | 1013.7 |
| 20260503210012 | 68 | 62 | 13.0 | 19.0 | 0.00 | 0.00 | 0.00 | 42 | 1013.7 |
| 20260503205512 | 68 | 80 | 10.0 | 15.0 | 0.00 | 0.00 | 0.00 | 42 | 1013.6 |
| 20260503205018 | 68 | 79 | 11.0 | 18.0 | 0.00 | 0.00 | 0.00 | 42 | 1013.6 |
| 20260503204514 | 68 | 77 | 12.0 | 20.0 | 0.00 | 0.00 | 0.00 | 41 | 1013.7 |
| 20260503204009 | 68 | 100 | 7.0 | 18.0 | 0.00 | 0.00 | 0.00 | 41 | 1013.6 |
| 20260503203509 | 68 | 93 | 7.0 | 18.0 | 0.00 | 0.00 | 0.00 | 41 | 1013.6 |
| 20260503203012 | 69 | 96 | 14.0 | 18.0 | 0.00 | 0.00 | 0.00 | 41 | 1013.7 |
| 20260503202511 | 69 | 58 | 14.0 | 19.0 | 0.00 | 0.00 | 0.00 | 41 | 1013.7 |
| 20260503202009 | 69 | 114 | 16.0 | 20.0 | 0.00 | 0.00 | 0.00 | 40 | 1013.7 |
| 20260503201509 | 69 | 107 | 7.0 | 24.0 | 0.00 | 0.00 | 0.00 | 40 | 1013.7 |
| 20260503201009 | 69 | 85 | 10.0 | 21.0 | 0.00 | 0.00 | 0.00 | 40 | 1013.8 |
| 20260503200509 | 69 | 78 | 10.0 | 19.0 | 0.00 | 0.00 | 0.00 | 39 | 1013.8 |
| 20260503200015 | 70 | 77 | 10.0 | 21.0 | 0.00 | 0.00 | 0.00 | 39 | 1013.8 |
| 20260503195511 | 70 | 91 | 13.0 | 21.0 | 0.00 | 0.00 | 0.00 | 39 | 1013.9 |
| 20260503195015 | 70 | 82 | 15.0 | 19.0 | 0.00 | 0.00 | 0.00 | 39 | 1013.9 |
| 20260503194509 | 70 | 86 | 9.0 | 15.0 | 0.00 | 0.00 | 0.00 | 38 | 1013.9 |
| 20260503194015 | 70 | 79 | 12.0 | 15.0 | 0.00 | 0.00 | 0.00 | 38 | 1013.8 |
| 20260503193509 | 70 | 92 | 9.0 | 14.0 | 0.00 | 0.00 | 0.00 | 38 | 1013.8 |
| 20260503193012 | 70 | 97 | 11.0 | 11.0 | 0.00 | 0.00 | 0.00 | 37 | 1013.8 |
| 20260503192511 | 70 | 72 | 6.0 | 11.0 | 0.00 | 0.00 | 0.00 | 37 | 1013.8 |
| 20260503192009 | 70 | 70 | 8.0 | 12.0 | 0.00 | 0.00 | 0.00 | 36 | 1013.8 |
| 20260503191519 | 70 | 86 | 7.0 | 11.0 | 0.00 | 0.00 | 0.00 | 36 | 1013.7 |
| 20260503191009 | 71 | 68 | 7.0 | 11.0 | 0.00 | 0.00 | 0.00 | 35 | 1013.7 |
| 20260503190512 | 71 | 58 | 8.0 | 12.0 | 0.00 | 0.00 | 0.00 | 35 | 1013.6 |
| 20260503190009 | 71 | 62 | 5.0 | 13.0 | 0.00 | 0.00 | 0.00 | 34 | 1013.6 |
| 20260503185511 | 71 | 48 | 9.0 | 11.0 | 0.00 | 0.00 | 0.00 | 34 | 1013.5 |
| 20260503185009 | 72 | 52 | 4.0 | 11.0 | 0.00 | 0.00 | 0.00 | 33 | 1013.5 |
| 20260503184512 | 72 | 97 | 6.0 | 11.0 | 0.00 | 0.00 | 0.00 | 32 | 1013.5 |
| 20260503184009 | 72 | 67 | 2.0 | 8.0 | 0.00 | 0.00 | 0.00 | 32 | 1013.4 |
| 20260503183509 | 73 | 55 | 2.0 | 11.0 | 0.00 | 0.00 | 0.00 | 32 | 1013.3 |
| 20260503183009 | 73 | 83 | 6.0 | 11.0 | 0.00 | 0.00 | 0.00 | 31 | 1013.3 |
| 20260503182511 | 73 | 97 | 5.0 | 9.0 | 0.00 | 0.00 | 0.00 | 31 | 1013.2 |
| 20260503182012 | 73 | 70 | 9.0 | 11.0 | 0.00 | 0.00 | 0.00 | 31 | 1013.2 |
| 20260503181512 | 73 | 76 | 8.0 | 14.0 | 0.00 | 0.00 | 0.00 | 30 | 1013.1 |
| 20260503181012 | 74 | 73 | 8.0 | 9.0 | 0.00 | 0.00 | 0.00 | 30 | 1013.1 |
| 20260503180512 | 74 | 79 | 7.0 | 9.0 | 0.00 | 0.00 | 0.00 | 29 | 1013.1 |
| 20260503180009 | 74 | 79 | 8.0 | 11.0 | 0.00 | 0.00 | 0.00 | 29 | 1013.0 |
| 20260503175517 | 74 | 88 | 5.0 | 9.0 | 0.00 | 0.00 | 0.00 | 28 | 1013.0 |
| 20260503175015 | 75 | 70 | 5.0 | 12.0 | 0.00 | 0.00 | 0.00 | 28 | 1013.0 |
| 20260503174512 | 75 | 83 | 6.0 | 11.0 | 0.00 | 0.00 | 0.00 | 27 | 1013.0 |
| 20260503174012 | 75 | 88 | 9.0 | 16.0 | 0.00 | 0.00 | 0.00 | 27 | 1012.8 |
| 20260503173512 | 75 | 24 | 2.0 | 14.0 | 0.00 | 0.00 | 0.00 | 27 | 1012.8 |
| 20260503173009 | 76 | 48 | 6.0 | 15.0 | 0.00 | 0.00 | 0.00 | 27 | 1012.8 |
| 20260503172514 | 76 | 48 | 8.0 | 18.0 | 0.00 | 0.00 | 0.00 | 26 | 1012.7 |
| 20260503172018 | 76 | 59 | 9.0 | 14.0 | 0.00 | 0.00 | 0.00 | 26 | 1012.7 |
| 20260503171509 | 76 | 19 | 8.0 | 15.0 | 0.00 | 0.00 | 0.00 | 26 | 1012.8 |
| 20260503171012 | 77 | 66 | 4.0 | 11.0 | 0.00 | 0.00 | 0.00 | 26 | 1012.7 |
| 20260503170512 | 77 | 58 | 6.0 | 15.0 | 0.00 | 0.00 | 0.00 | 25 | 1012.8 |
| 20260503151012 | 79 | 62 | 6.0 | 13.0 | 0.00 | 0.00 | 0.00 | 21 | 1013.1 |
| 20260503150515 | 80 | 90 | 7.0 | 14.0 | 0.00 | 0.00 | 0.00 | 21 | 1013.1 |
| 20260503131015 | 78 | 35 | 12.0 | 14.0 | 0.00 | 0.00 | 0.00 | 27 | 1014.5 |
| 20260503130512 | 78 | 54 | 9.0 | 12.0 | 0.00 | 0.00 | 0.00 | 27 | 1014.4 |
| 20260503110509 | 76 | 57 | 6.0 | 13.0 | 0.00 | 0.00 | 0.00 | 28 | 1015.8 |
| 20260503081518 | 67 | 83 | 5.0 | 9.0 | 0.00 | 0.00 | 0.00 | 41 | 1017.2 |
| 20260503081009 | 67 | 52 | 6.0 | 11.0 | 0.00 | 0.00 | 0.00 | 42 | 1017.3 |
| 20260503080511 | 67 | 68 | 8.0 | 9.0 | 0.00 | 0.00 | 0.00 | 42 | 1017.3 |
| 20260503072513 | 63 | 98 | 7.0 | 8.0 | 0.00 | 0.00 | 0.00 | 46 | 1017.4 |
| 20260503072012 | 63 | 95 | 5.0 | 6.0 | 0.00 | 0.00 | 0.00 | 46 | 1017.4 |
| 20260503071512 | 62 | 101 | 1.0 | 7.0 | 0.00 | 0.00 | 0.00 | 46 | 1017.5 |
| 20260503071015 | 61 | 106 | 2.0 | 7.0 | 0.00 | 0.00 | 0.00 | 46 | 1017.5 |
| 20260503070514 | 61 | 70 | 2.0 | 8.0 | 0.00 | 0.00 | 0.00 | 47 | 1017.5 |
| 20260503055009 | 56 | 31 | 2.0 | 5.0 | 0.00 | 0.00 | 0.00 | 56 | 1017.6 |
| 20260503054509 | 55 | 12 | 0.0 | 5.0 | 0.00 | 0.00 | 0.00 | 58 | 1017.6 |
| 20260503054009 | 55 | 11 | 3.0 | 4.0 | 0.00 | 0.00 | 0.00 | 60 | 1017.6 |
| 20260503053517 | 55 | 48 | 4.0 | 5.0 | 0.00 | 0.00 | 0.00 | 60 | 1017.6 |
| 20260503053009 | 54 | 107 | 1.0 | 4.0 | 0.00 | 0.00 | 0.00 | 61 | 1017.6 |
| 20260503052509 | 54 | 61 | 1.0 | 4.0 | 0.00 | 0.00 | 0.00 | 61 | 1017.7 |
| 20260503052015 | 54 | 98 | 2.0 | 4.0 | 0.00 | 0.00 | 0.00 | 61 | 1017.8 |
| 20260503051512 | 53 | 69 | 2.0 | 4.0 | 0.00 | 0.00 | 0.00 | 61 | 1017.8 |
| 20260503051009 | 53 | 68 | 2.0 | 4.0 | 0.00 | 0.00 | 0.00 | 60 | 1017.8 |
| 20260503050511 | 54 | 36 | 2.0 | 2.0 | 0.00 | 0.00 | 0.00 | 59 | 1017.8 |
| 20260503050015 | 54 | 36 | 1.0 | 2.0 | 0.00 | 0.00 | 0.00 | 58 | 1017.8 |
| 20260503045515 | 54 | 36 | 2.0 | 2.0 | 0.00 | 0.00 | 0.00 | 58 | 1017.8 |
| 20260503045018 | 54 | 36 | 1.0 | 2.0 | 0.00 | 0.00 | 0.00 | 57 | 1017.9 |
| 20260503044512 | 54 | 36 | 0.0 | 2.0 | 0.00 | 0.00 | 0.00 | 58 | 1017.8 |